�N����,����,�~����,�C��,���x,�C��,����,���ϕ���,�ő�u�ԕ���,�ő厞����,���˗�,�I�_���x,�n�����x,�ő啗���N��,DTYPE
"18/09/25","00:10",0.0,21.1,85.9,1009.3,240.6,0.7,1.6,211.0,0.00,18.7,22.7,"00:03:20",1
"18/09/25","00:20",0.0,21.0,86.4,1009.5,321.1,2.0,3.3,330.7,0.00,18.7,22.6,"00:16:32",1
"18/09/25","00:30",0.0,20.8,87.2,1010.0,296.3,0.8,2.0,305.3,0.00,18.6,22.6,"00:20:16",1
"18/09/25","00:40",0.0,20.8,88.0,1009.5,338.3,1.0,1.7,339.5,0.00,18.8,22.6,"00:34:56",1
"18/09/25","00:50",0.0,20.8,88.1,1009.5,336.3,1.8,3.4,343.7,0.00,18.8,22.6,"00:46:16",1
"18/09/25","01:00",0.0,20.8,88.4,1009.3,317.1,1.1,2.1,331.2,0.00,18.9,22.6,"00:52:00",1
"18/09/25","01:10",0.0,20.7,88.9,1009.5,298.5,0.6,1.1,267.0,0.00,18.8,22.7,"01:04:24",1
"18/09/25","01:20",0.0,20.5,89.4,1009.3,281.1,0.7,1.9,321.8,0.00,18.7,22.7,"01:19:20",1
"18/09/25","01:30",0.0,20.6,89.6,1009.3,325.9,1.6,2.1,333.1,0.00,18.9,22.6,"01:24:00",1
"18/09/25","01:40",0.0,20.5,89.7,1009.0,332.3,0.6,1.3,356.1,0.00,18.8,22.7,"01:32:08",1
"18/09/25","01:50",0.0,20.4,90.4,1009.3,320.2,0.8,1.6,320.9,0.00,18.8,22.4,"01:45:04",1
"18/09/25","02:00",0.0,20.3,91.0,1009.3,2.3,0.5,1.4,323.0,0.00,18.8,22.4,"01:59:52",1
"18/09/25","02:10",0.0,20.3,91.4,1009.3,312.9,1.5,2.6,344.5,0.00,18.9,22.4,"02:06:32",1
"18/09/25","02:20",0.0,20.3,91.6,1009.5,325.1,1.6,2.5,322.8,0.00,18.9,22.5,"02:18:24",1
"18/09/25","02:30",0.0,20.2,91.8,1010.0,295.8,0.7,1.1,312.4,0.00,18.9,22.6,"02:24:24",1
"18/09/25","02:40",0.0,20.2,92.1,1009.7,293.8,0.6,1.1,306.7,0.00,18.9,22.3,"02:35:20",1
"18/09/25","02:50",0.0,20.2,92.3,1009.7,339.3,0.3,0.9,311.1,0.00,19.0,22.3,"02:41:20",1
"18/09/25","03:00",0.0,20.1,92.5,1009.5,322.8,1.1,1.8,349.0,0.00,18.9,22.4,"02:58:40",1
"18/09/25","03:10",0.0,20.1,92.8,1009.0,317.3,1.0,1.4,314.5,0.00,18.9,22.6,"03:02:00",1
"18/09/25","03:20",0.0,20.0,93.0,1009.5,330.0,1.2,1.6,324.0,0.00,18.9,22.5,"03:11:12",1
"18/09/25","03:30",0.0,20.1,93.2,1009.0,319.9,1.5,2.1,336.4,0.00,19.0,22.3,"03:27:20",1
"18/09/25","03:40",0.0,20.1,93.3,1009.0,322.5,1.3,2.4,329.3,0.00,19.0,22.2,"03:32:00",1
"18/09/25","03:50",0.0,20.1,93.4,1009.0,336.7,1.6,2.7,341.9,0.00,19.0,22.2,"03:49:44",1
"18/09/25","04:00",0.0,20.2,93.3,1008.8,323.9,1.2,2.5,334.9,0.00,19.1,22.2,"03:50:08",1
"18/09/25","04:10",0.2,20.1,93.3,1008.6,329.3,1.1,1.8,312.4,0.00,19.0,22.4,"04:09:44",1
"18/09/25","04:20",0.0,20.1,93.5,1008.8,284.5,0.6,1.3,310.3,0.00,19.1,22.2,"04:10:08",1
"18/09/25","04:30",0.0,20.1,93.9,1009.0,8.9,0.3,1.1,302.9,0.00,19.1,22.4,"04:21:44",1
"18/09/25","04:40",0.0,20.1,93.9,1009.0,23.3,0.6,1.7,350.4,0.00,19.1,22.3,"04:35:44",1
"18/09/25","04:50",0.0,20.0,93.9,1009.3,333.5,0.8,2.5,333.5,0.00,19.0,22.3,"04:41:52",1
"18/09/25","05:00",0.0,19.9,94.0,1008.8,335.2,1.2,1.9,331.6,0.00,18.9,22.2,"04:54:32",1
"18/09/25","05:10",0.0,19.9,94.3,1009.0,304.0,1.3,2.4,331.6,0.00,19.0,22.2,"05:05:44",1
"18/09/25","05:20",0.0,20.0,94.4,1009.5,271.1,0.7,1.3,240.7,0.00,19.1,22.2,"05:19:04",1
"18/09/25","05:30",0.0,19.9,94.4,1009.7,278.9,0.8,1.6,328.6,0.00,19.0,22.2,"05:28:40",1
"18/09/25","05:40",0.2,19.9,94.5,1010.0,311.2,1.2,1.8,312.4,0.00,19.0,22.2,"05:37:28",1
"18/09/25","05:50",0.0,19.8,94.7,1009.5,342.3,1.0,1.7,337.7,0.00,19.0,22.1,"05:40:08",1
"18/09/25","06:00",0.4,19.7,94.8,1009.7,341.6,0.7,2.0,342.9,0.00,18.9,22.1,"05:52:16",1
"18/09/25","06:10",0.2,19.7,95.0,1010.0,311.2,1.1,1.8,328.0,0.00,18.9,22.3,"06:08:16",1
"18/09/25","06:20",0.4,19.8,95.1,1010.0,271.3,0.8,1.3,312.8,0.00,19.0,22.1,"06:18:48",1
"18/09/25","06:30",0.2,19.7,95.1,1010.0,347.3,0.8,2.0,337.6,0.00,18.9,22.1,"06:22:24",1
"18/09/25","06:40",0.0,19.7,95.3,1010.0,317.8,0.7,1.3,330.6,0.00,19.0,22.1,"06:32:48",1
"18/09/25","06:50",0.2,19.7,95.6,1010.2,267.5,0.7,1.0,315.8,0.00,19.0,22.1,"06:40:16",1
"18/09/25","07:00",0.2,19.7,95.5,1010.2,295.8,1.0,1.7,325.4,0.00,19.0,22.2,"06:57:52",1
"18/09/25","07:10",0.2,19.6,95.6,1010.0,297.0,1.1,2.5,339.5,0.00,18.9,22.0,"07:00:48",1
"18/09/25","07:20",0.2,19.6,95.7,1010.2,282.2,0.8,1.2,314.4,0.00,18.9,22.1,"07:15:28",1
"18/09/25","07:30",0.2,19.6,95.8,1009.5,289.6,0.6,1.0,281.4,0.00,19.0,22.0,"07:20:40",1
"18/09/25","07:40",0.0,19.6,95.5,1010.0,270.5,0.7,1.4,285.5,0.01,18.9,22.0,"07:38:48",1
"18/09/25","07:50",0.0,19.4,95.9,1009.7,276.4,1.0,1.8,244.2,0.01,18.8,22.0,"07:47:28",1
"18/09/25","08:00",0.0,19.3,96.0,1010.0,295.5,1.3,2.2,316.5,0.01,18.7,22.1,"07:50:56",1
"18/09/25","08:10",0.0,19.3,96.2,1009.7,323.4,1.6,2.5,326.2,0.01,18.7,22.2,"08:05:52",1
"18/09/25","08:20",0.2,19.5,96.1,1009.5,299.4,1.1,2.1,319.3,0.01,18.9,22.0,"08:12:24",1
"18/09/25","08:30",0.0,19.3,95.9,1010.0,291.7,1.1,1.8,303.7,0.01,18.7,22.0,"08:22:00",1
"18/09/25","08:40",0.2,19.3,95.8,1009.7,300.7,1.0,2.1,332.5,0.02,18.7,22.1,"08:33:36",1
"18/09/25","08:50",0.2,19.4,96.1,1009.7,240.3,0.5,1.1,300.0,0.01,18.8,22.2,"08:49:28",1
"18/09/25","09:00",0.0,19.4,95.9,1009.7,277.3,1.0,1.3,301.5,0.01,18.8,22.0,"08:50:56",1
"18/09/25","09:10",0.2,19.4,96.0,1010.0,273.3,1.0,1.7,261.0,0.03,18.8,22.1,"09:02:24",1
"18/09/25","09:20",0.2,19.6,96.0,1009.7,298.4,1.1,1.9,265.0,0.05,19.0,22.0,"09:12:08",1
"18/09/25","09:30",0.0,19.9,96.2,1009.3,262.6,0.6,1.6,303.9,0.04,19.3,22.1,"09:20:24",1
"18/09/25","09:40",0.0,20.0,95.9,1010.2,246.0,0.5,1.2,303.9,0.06,19.4,22.2,"09:37:20",1
"18/09/25","09:50",0.0,19.8,95.2,1009.5,258.8,0.7,1.4,248.4,0.08,19.0,22.2,"09:45:52",1
"18/09/25","10:00",0.0,20.0,94.7,1009.7,312.8,1.1,1.8,317.2,0.10,19.2,22.1,"09:50:56",1
"18/09/25","10:10",0.0,20.3,95.4,1009.7,255.4,0.5,1.0,246.7,0.11,19.6,22.2,"10:03:52",1
"18/09/25","10:20",0.0,20.0,93.8,1009.5,239.7,0.2,0.6,242.9,0.09,19.0,22.3,"10:13:28",1
"18/09/25","10:30",0.0,20.2,93.5,1010.0,240.6,0.3,0.9,232.8,0.05,19.2,22.1,"10:23:52",1
"18/09/25","10:40",0.0,20.4,92.8,1009.7,309.1,1.0,1.7,339.5,0.10,19.2,22.5,"10:39:12",1
"18/09/25","10:50",0.0,20.8,90.6,1009.7,308.3,1.1,2.1,341.0,0.14,19.2,22.3,"10:44:16",1
"18/09/25","11:00",0.0,21.2,90.6,1010.0,300.0,1.1,2.7,336.7,0.15,19.6,22.4,"10:57:36",1
"18/09/25","11:10",0.0,21.1,88.2,1009.7,311.5,1.1,2.0,339.3,0.14,19.1,22.7,"11:03:12",1
"18/09/25","11:20",0.0,21.5,88.1,1010.2,298.8,1.0,2.4,322.4,0.14,19.5,22.5,"11:18:40",1
"18/09/25","11:30",0.0,21.4,87.4,1010.2,290.4,0.6,1.3,309.8,0.14,19.3,22.7,"11:26:40",1
"18/09/25","11:40",0.0,21.7,87.6,1009.7,274.7,0.6,1.2,265.5,0.14,19.6,22.6,"11:36:16",1
"18/09/25","11:50",0.0,21.6,86.8,1009.5,221.2,0.3,0.9,276.2,0.15,19.3,22.6,"11:49:36",1
"18/09/25","12:00",0.0,22.0,86.0,1009.0,274.3,0.7,1.2,303.9,0.17,19.6,22.8,"11:52:24",1
"18/09/25","12:10",0.0,22.0,86.1,1009.0,322.6,1.0,2.1,343.7,0.18,19.6,22.8,"12:01:36",1
"18/09/25","12:20",0.0,22.4,85.8,1008.8,304.4,0.6,1.4,337.8,0.21,19.9,23.0,"12:18:56",1
"18/09/25","12:30",0.0,22.4,84.5,1008.3,315.5,1.0,1.8,328.7,0.21,19.7,23.1,"12:22:48",1
"18/09/25","12:40",0.0,22.9,81.9,1008.3,281.7,0.6,1.2,321.4,0.20,19.7,22.9,"12:37:44",1
"18/09/25","12:50",0.0,22.9,81.4,1008.1,316.5,0.3,0.8,24.9,0.20,19.6,23.1,"12:46:24",1
"18/09/25","13:00",0.0,23.2,77.3,1008.1,282.5,0.5,1.0,267.7,0.23,19.0,23.1,"12:53:36",1
"18/09/25","13:10",0.0,23.4,77.6,1008.1,295.3,0.6,1.7,324.6,0.21,19.3,23.0,"13:05:28",1
"18/09/25","13:20",0.0,22.9,77.5,1007.8,241.9,1.1,2.4,234.4,0.16,18.8,23.3,"13:11:20",1
"18/09/25","13:30",0.0,23.0,77.6,1007.8,237.0,0.6,1.3,265.7,0.16,18.9,23.2,"13:20:56",1
"18/09/25","13:40",0.0,23.2,76.0,1007.4,297.6,0.5,0.9,322.6,0.11,18.8,23.5,"13:37:36",1
"18/09/25","13:50",0.0,23.0,77.1,1007.1,229.5,0.6,1.6,223.7,0.11,18.8,23.4,"13:43:12",1
"18/09/25","14:00",0.0,22.9,78.5,1007.4,171.5,0.2,1.0,216.4,0.09,19.0,23.3,"13:52:16",1
"18/09/25","14:10",0.0,22.9,77.5,1006.9,332.6,1.0,1.9,336.6,0.10,18.8,23.5,"14:09:28",1
"18/09/25","14:20",0.0,22.9,77.4,1007.6,265.1,1.1,2.4,238.9,0.07,18.8,23.6,"14:12:40",1
"18/09/25","14:30",0.0,22.6,79.0,1007.6,269.3,1.3,2.7,236.3,0.09,18.8,23.3,"14:25:44",1
"18/09/25","14:40",0.0,22.0,82.2,1007.6,296.7,1.2,2.9,336.1,0.12,18.9,23.5,"14:35:28",1
"18/09/25","14:50",0.0,22.1,82.5,1007.6,293.5,1.1,3.3,258.3,0.14,19.0,23.3,"14:45:12",1
"18/09/25","15:00",0.0,22.0,82.4,1007.8,298.0,1.5,3.2,334.0,0.11,18.9,23.5,"14:51:20",1
"18/09/25","15:10",0.0,22.2,81.0,1007.1,319.9,2.0,4.7,333.9,0.06,18.8,23.6,"15:09:12",1
"18/09/25","15:20",0.0,22.0,81.3,1007.4,327.9,3.0,5.9,319.2,0.08,18.7,23.3,"15:15:44",1
"18/09/25","15:30",0.0,22.2,80.9,1007.4,327.3,3.1,5.2,338.5,0.13,18.8,23.6,"15:24:40",1
"18/09/25","15:40",0.0,22.4,79.3,1007.1,333.0,2.7,5.2,337.7,0.14,18.7,23.4,"15:31:20",1
"18/09/25","15:50",0.0,22.7,78.0,1007.1,334.5,2.3,4.5,335.9,0.08,18.7,23.6,"15:45:12",1
"18/09/25","16:00",0.0,22.8,78.2,1007.1,333.6,2.1,4.3,340.0,0.14,18.8,23.6,"15:54:08",1
"18/09/25","16:10",0.0,22.8,77.9,1006.9,330.0,1.6,2.6,339.3,0.12,18.8,23.7,"16:00:24",1
"18/09/25","16:20",0.0,23.2,76.2,1007.1,339.3,1.7,2.9,335.5,0.08,18.8,23.5,"16:10:56",1
"18/09/25","16:30",0.0,22.8,76.5,1007.4,331.4,2.1,3.2,320.7,0.06,18.5,23.5,"16:28:56",1
"18/09/25","16:40",0.0,22.7,77.3,1007.4,322.9,1.8,3.5,332.5,0.03,18.6,23.5,"16:36:40",1
"18/09/25","16:50",0.0,22.6,77.4,1007.1,316.8,2.0,3.6,334.2,0.04,18.5,23.4,"16:43:12",1
"18/09/25","17:00",0.0,22.7,77.9,1007.1,312.7,1.6,3.4,354.5,0.06,18.7,23.4,"16:52:08",1
"18/09/25","17:10",0.0,22.6,78.8,1007.1,323.8,1.8,3.3,341.4,0.05,18.8,23.4,"17:06:08",1
"18/09/25","17:20",0.0,22.5,77.7,1007.1,318.4,1.7,5.1,319.2,0.05,18.5,23.3,"17:10:40",1
"18/09/25","17:30",0.0,22.2,76.9,1007.1,313.5,2.1,4.1,335.0,0.03,18.0,23.6,"17:25:04",1
"18/09/25","17:40",0.0,22.0,77.5,1007.4,328.1,2.2,3.6,313.9,0.01,17.9,23.3,"17:37:28",1
"18/09/25","17:50",0.0,21.7,78.3,1007.4,325.8,2.5,4.4,317.6,0.00,17.8,23.0,"17:42:40",1
"18/09/25","18:00",0.0,21.3,79.8,1007.6,321.7,1.6,2.5,331.6,0.00,17.7,23.2,"17:50:08",1
"18/09/25","18:10",0.0,21.0,81.0,1007.4,343.7,1.2,2.4,345.7,0.00,17.7,23.3,"18:00:16",1
"18/09/25","18:20",0.0,20.7,82.5,1007.8,339.6,1.2,2.4,329.5,0.00,17.7,23.0,"18:11:12",1
"18/09/25","18:30",0.0,20.2,85.1,1008.3,328.4,1.3,2.2,329.2,0.00,17.7,23.1,"18:29:52",1
"18/09/25","18:40",0.0,19.9,86.3,1007.8,332.8,1.6,2.5,332.0,0.00,17.6,23.2,"18:35:28",1
"18/09/25","18:50",0.0,19.7,87.5,1008.1,335.2,2.0,3.2,331.7,0.00,17.6,22.9,"18:49:12",1
"18/09/25","19:00",0.0,19.7,88.0,1008.3,335.5,2.0,3.1,336.2,0.00,17.7,22.9,"18:59:36",1
"18/09/25","19:10",0.0,19.8,88.0,1008.6,333.9,1.7,3.5,336.2,0.00,17.8,22.7,"19:00:08",1
"18/09/25","19:20",0.0,19.8,87.6,1008.6,350.7,1.2,2.4,337.4,0.00,17.7,22.6,"19:12:16",1
"18/09/25","19:30",0.0,19.5,87.8,1008.6,318.5,0.7,1.6,339.0,0.00,17.5,22.7,"19:22:08",1
"18/09/25","19:40",0.0,19.4,89.0,1009.0,326.5,1.1,2.0,329.1,0.00,17.6,22.7,"19:38:56",1
"18/09/25","19:50",0.0,19.2,90.1,1009.3,321.6,1.0,2.2,320.7,0.00,17.6,22.6,"19:40:16",1
"18/09/25","20:00",0.0,18.9,90.3,1009.5,291.9,0.7,1.9,327.6,0.00,17.3,22.7,"19:58:16",1
"18/09/25","20:10",0.0,18.8,91.4,1009.7,298.5,0.7,1.2,293.3,0.00,17.4,22.5,"20:00:32",1
"18/09/25","20:20",0.0,18.6,91.8,1009.5,288.7,0.7,1.4,328.2,0.00,17.3,22.4,"20:10:08",1
"18/09/25","20:30",0.0,18.5,92.2,1010.0,320.4,0.3,1.1,338.0,0.00,17.3,22.3,"20:28:00",1
"18/09/25","20:40",0.0,18.4,92.5,1010.0,309.1,1.1,1.7,327.2,0.00,17.2,22.4,"20:36:16",1
"18/09/25","20:50",0.0,18.1,92.8,1009.7,275.8,0.5,0.9,307.3,0.00,17.0,22.2,"20:40:48",1
"18/09/25","21:00",0.0,18.1,93.4,1009.7,297.2,0.6,1.3,241.4,0.00,17.1,22.3,"20:57:52",1
"18/09/25","21:10",0.0,18.0,93.6,1009.7,295.8,0.7,1.2,319.3,0.00,17.0,22.2,"21:00:08",1
"18/09/25","21:20",0.0,17.9,94.0,1010.0,313.4,0.7,1.3,323.3,0.00,17.0,22.3,"21:18:24",1
"18/09/25","21:30",0.0,17.8,93.9,1009.7,308.0,1.1,2.0,327.2,0.00,16.8,22.2,"21:21:36",1
"18/09/25","21:40",0.0,17.6,94.0,1010.2,320.6,1.0,1.8,329.1,0.00,16.7,21.9,"21:38:48",1
"18/09/25","21:50",0.0,17.7,94.8,1010.0,310.6,1.1,1.8,341.3,0.00,16.9,21.9,"21:41:44",1
"18/09/25","22:00",0.0,17.5,94.2,1009.7,322.5,1.0,1.3,315.9,0.00,16.6,21.8,"21:53:04",1
"18/09/25","22:10",0.0,17.3,94.4,1009.7,319.0,1.5,1.9,322.0,0.00,16.4,21.9,"22:06:40",1
"18/09/25","22:20",0.0,17.2,94.4,1010.0,298.3,1.3,2.8,339.3,0.00,16.3,21.7,"22:12:00",1
"18/09/25","22:30",0.0,17.3,93.9,1010.0,283.5,1.1,1.7,316.5,0.00,16.3,21.7,"22:26:48",1
"18/09/25","22:40",0.0,17.4,93.3,1010.0,306.5,1.1,2.0,313.1,0.00,16.3,21.7,"22:30:32",1
"18/09/25","22:50",0.0,17.3,92.9,1010.2,337.2,0.6,1.7,341.1,0.00,16.2,21.8,"22:40:48",1
"18/09/25","23:00",0.0,17.0,93.7,1010.7,310.9,1.1,2.1,336.9,0.00,16.0,21.7,"22:57:44",1
"18/09/25","23:10",0.0,16.9,93.6,1010.4,310.0,0.8,1.8,331.6,0.00,15.9,21.5,"23:09:28",1
"18/09/25","23:20",0.0,16.7,93.7,1010.4,316.4,1.0,1.7,324.9,0.00,15.7,21.6,"23:14:08",1
"18/09/25","23:30",0.0,16.6,93.8,1010.4,305.5,0.8,1.8,311.9,0.00,15.6,21.5,"23:29:36",1
"18/09/25","23:40",0.0,16.5,93.7,1010.4,327.5,1.1,1.8,337.5,0.00,15.5,21.5,"23:32:08",1
"18/09/25","23:50",0.0,16.4,93.9,1010.2,314.0,1.1,2.2,333.7,0.00,15.5,21.4,"23:48:24",1
"18/09/25","24:00",0.0,16.3,94.0,1010.0,308.3,1.0,1.7,330.0,0.00,15.4,21.4,"23:56:32",1
